This demonstration page uses our WeatherBlox Daily Observations layout. Learn more.

Left ArrowRight Arrow

40.97296, -117.73568

Hourly Observations for August 29, 2022

Temp ( °F °C ) Dew Point ( °F °C ) Humidity (%) Winds ( mph kmh ) Pressure ( in mb ) Visibility ( mi km ) Precip ( " mm )
12:56 am 00:56 Clear 54 12.2 N/A N/A Calm 29.86 1011 10 16 0.00 0.00
1:56 am 01:56 Clear 49 9.4 N/A N/A S 6 9 29.88 1012 10 16 0.00 0.00
2:56 am 02:56 Clear 48 8.9 N/A N/A Calm 29.89 1012 10 16 0.00 0.00
3:56 am 03:56 Clear 50 10 N/A N/A E 6 9 29.91 1013 10 16 0.00 0.00
4:56 am 04:56 Clear 47 8.3 N/A N/A ESE 6 9 29.92 1013 10 16 0.00 0.00
5:56 am 05:56 Clear 47 8.3 N/A N/A SSE 8 13 29.94 1014 10 16 0.00 0.00
6:56 am 06:56 Sunny 50 10 N/A N/A SE 8 13 29.96 1015 10 16 0.00 0.00
7:56 am 07:56 Sunny 62 16.7 N/A N/A Calm 29.98 1015 10 16 0.00 0.00
8:56 am 08:56 Sunny 73 22.8 31 -0.6 21 21 ENE 13 20 29.97 1015 10 16 0.00 0.00
9:56 am 09:56 Sunny 79 26.1 33 0.6 19 19 ENE 9 15 29.98 1015 10 16 0.00 0.00
10:56 am 10:56 Sunny 87 30.6 32 0 14 14 NNE 15 24 29.97 1015 10 16 0.00 0.00
11:56 am 11:56 Sunny 92 33.3 29 -1.7 11 11 NE 18 30 29.96 1014 10 16 0.00 0.00
12:56 pm 12:56 undefined 95 35 24 -4.4 8 8 NE 13 20 29.93 1014 10 16 0.00 0.00
1:56 pm 13:56 Sunny 96 35.6 25 -3.9 8 8 NNE 12 19 29.93 1013 10 16 0.00 0.00
2:56 pm 14:56 Sunny 97 36.1 26 -3.3 8 8 VRB 5 7 29.91 1013 10 16 0.00 0.00
3:56 pm 15:56 Sunny 97 36.1 27 -2.8 8 8 S 8 13 29.88 1012 10 16 0.00 0.00
4:56 pm 16:56 Sunny 96 35.6 27 -2.8 9 9 Calm 29.88 1012 10 16 0.00 0.00
5:56 pm 17:56 Sunny 97 36.1 27 -2.8 8 8 ENE 6 9 29.88 1012 10 16 0.00 0.00
6:56 pm 18:56 Sunny 93 33.9 27 -2.8 9 9 N 7 11 29.88 1012 10 16 0.00 0.00
7:56 pm 19:56 Clear 86 30 29 -1.7 13 13 ENE 7 11 29.88 1012 10 16 0.00 0.00
8:56 pm 20:56 Clear 83 28.3 28 -2.2 14 14 ENE 7 11 29.88 1012 10 16 0.00 0.00
9:56 pm 21:56 Clear 74 23.3 27 -2.8 17 17 ENE 8 13 29.88 1012 10 16 0.00 0.00
10:56 pm 22:56 Clear 81 27.2 29 -1.7 15 15 NE 15 24 29.88 1012 10 16 0.00 0.00
11:56 pm 23:56 Clear 82 27.8 31 -0.6 16 16 WNW 9 15 29.92 1013 10 16 0.00 0.00

Powered by AerisWeather